Location: Copeville
(33.0796°N, 96.4155°W)
Time: 05:23:50
(UTC+00:00)

JUGNU - Pass Details

Date: 27 April 2024
Orbit: 835 x 862 km, 20.0° (Epoch: 19 May)

Event Time Altitude Azimuth Distance (km) Brightness Sun altitude
Rises 01:42:51 0° 247° (WSW) 3,362 ? -8.3°
Reaches altitude 10° 01:47:03 10° 219° (SW) 2,429 ? -9.1°
Maximum altitude 01:49:21 12° 195° (SSW) 2,262 ? -9.6°
Drops below altitude 10° 01:51:40 10° 172° (S) 2,432 ? -10.0°
Enters shadow 01:53:56 - 154° (SSE) 2,867 ? -10.5°
